TimeEDT,TemperatureF,Dew PointF,Humidity,Sea Level PressureIn,VisibilityMPH,Wind Direction,Wind SpeedMPH,Gust SpeedMPH,PrecipitationIn,Events,Conditions,WindDirDegrees,DateUTC
12:53 AM,69.1,64.0,84,30.21,10.0,Calm,Calm,-,N/A,,Mostly Cloudy,0,2013-04-26 04:53:00
1:53 AM,64.9,62.1,90,30.21,10.0,Calm,Calm,-,N/A,,Clear,0,2013-04-26 05:53:00
3:53 AM,66.9,62.1,84,30.18,10.0,North,5.8,-,N/A,,Clear,350,2013-04-26 07:53:00
4:53 AM,66.9,59.0,76,30.18,10.0,NNE,6.9,-,N/A,,Clear,20,2013-04-26 08:53:00
5:53 AM,63.0,57.9,84,30.19,10.0,Calm,Calm,-,N/A,,Clear,0,2013-04-26 09:53:00
6:53 AM,63.0,57.0,81,30.21,10.0,North,4.6,-,N/A,,Clear,350,2013-04-26 10:53:00
7:53 AM,64.9,53.1,65,30.24,10.0,North,5.8,-,N/A,,Clear,10,2013-04-26 11:53:00
8:53 AM,68.0,53.1,59,30.25,10.0,NNE,11.5,-,N/A,,Clear,20,2013-04-26 12:53:00
9:53 AM,73.0,57.0,57,30.27,10.0,NNE,9.2,-,N/A,,Clear,30,2013-04-26 13:53:00
10:53 AM,77.0,59.0,54,30.28,10.0,NNE,8.1,-,N/A,,Clear,30,2013-04-26 14:53:00
11:53 AM,80.1,59.0,48,30.28,10.0,NE,12.7,20.7,N/A,,Clear,40,2013-04-26 15:53:00
12:53 PM,82.0,61.0,49,30.27,10.0,ENE,11.5,21.9,N/A,,Clear,60,2013-04-26 16:53:00
1:53 PM,81.0,60.1,49,30.26,10.0,ENE,11.5,20.7,N/A,,Mostly Cloudy,60,2013-04-26 17:53:00
2:53 PM,82.9,57.9,42,30.23,10.0,ENE,9.2,-,N/A,,Scattered Clouds,60,2013-04-26 18:53:00
3:53 PM,82.9,57.9,42,30.22,10.0,East,8.1,-,N/A,,Scattered Clouds,80,2013-04-26 19:53:00
4:53 PM,82.9,60.1,46,30.21,10.0,NE,11.5,-,N/A,,Scattered Clouds,40,2013-04-26 20:53:00
5:53 PM,81.0,60.1,49,30.21,10.0,ENE,15.0,-,N/A,,Clear,60,2013-04-26 21:53:00
6:53 PM,78.1,62.1,58,30.22,10.0,NE,17.3,21.9,N/A,,Partly Cloudy,50,2013-04-26 22:53:00
7:53 PM,73.9,62.1,66,30.23,10.0,ENE,11.5,-,N/A,,Mostly Cloudy,60,2013-04-26 23:53:00
8:53 PM,71.1,62.1,73,30.25,10.0,ENE,9.2,-,N/A,,Partly Cloudy,60,2013-04-27 00:53:00
9:53 PM,69.1,60.1,73,30.28,10.0,NE,9.2,-,N/A,,Clear,40,2013-04-27 01:53:00
10:53 PM,66.9,57.9,73,30.29,10.0,ENE,5.8,-,N/A,,Clear,60,2013-04-27 02:53:00
11:53 PM,64.0,57.0,78,30.27,10.0,ENE,5.8,-,N/A,,Clear,60,2013-04-27 03:53:00